| time (UTC) | temp F | wind direction | speed knots | gust knots | rain 1hr in | rain 24hr in | rain mn in | humidity % | barometer mb |
| 20260507042508 | 48 | 18 | 0.9 | 1.7 | 0.00 | 0.00 | 0.00 | 76 | 1011.4 |
| 20260507042004 | 49 | 17 | 0.0 | 1.7 | 0.00 | 0.00 | 0.00 | 76 | 1011.5 |
| 20260507041508 | 49 | 11 | 0.0 | 1.7 | 0.00 | 0.00 | 0.00 | 75 | 1011.4 |
| 20260507041003 | 49 | 94 | 0.0 | 1.7 | 0.00 | 0.00 | 0.00 | 75 | 1011.4 |
| 20260507040507 | 49 | 67 | 0.0 | 1.7 | 0.00 | 0.00 | 0.00 | 75 | 1011.4 |
| 20260507040015 | 49 | 37 | 0.0 | 1.7 | 0.00 | 0.00 | 0.00 | 74 | 1011.4 |
| 20260507035506 | 50 | 21 | 0.0 | 1.7 | 0.00 | 0.00 | 0.00 | 74 | 1011.4 |
| 20260507035005 | 50 | 42 | 0.0 | 1.7 | 0.00 | 0.00 | 0.00 | 74 | 1011.3 |
| 20260507034513 | 50 | 42 | 0.0 | 1.7 | 0.00 | 0.00 | 0.00 | 73 | 1011.3 |
| 20260507034010 | 50 | 40 | 0.0 | 1.7 | 0.00 | 0.00 | 0.00 | 72 | 1011.4 |
| 20260507033506 | 51 | 34 | 0.0 | 0.9 | 0.00 | 0.00 | 0.00 | 73 | 1011.4 |
| 20260507033024 | 50 | 329 | 0.0 | 0.0 | 0.00 | 0.00 | 0.00 | 73 | 1011.4 |
| 20260507032504 | 50 | 69 | 0.0 | 0.0 | 0.00 | 0.00 | 0.00 | 72 | 1011.4 |
| 20260507032041 | 50 | 57 | 0.0 | 1.7 | 0.00 | 0.00 | 0.00 | 72 | 1011.4 |
| 20260507031508 | 50 | 5 | 0.0 | 3.5 | 0.00 | 0.00 | 0.00 | 72 | 1011.4 |
| 20260507031003 | 50 | 11 | 0.9 | 3.5 | 0.00 | 0.00 | 0.00 | 72 | 1011.3 |
| 20260507030504 | 50 | 18 | 0.0 | 0.9 | 0.00 | 0.00 | 0.00 | 72 | 1011.3 |
| 20260507030010 | 50 | 360 | 0.0 | 0.9 | 0.00 | 0.00 | 0.00 | 71 | 1011.2 |
| 20260507025508 | 51 | 345 | 0.9 | 1.7 | 0.00 | 0.00 | 0.00 | 71 | 1011.2 |
| 20260507025013 | 51 | 36 | 0.0 | 1.7 | 0.00 | 0.00 | 0.00 | 70 | 1011.2 |
| 20260507024518 | 51 | 38 | 0.0 | 0.0 | 0.00 | 0.00 | 0.00 | 70 | 1011.1 |
| 20260507024004 | 51 | 22 | 0.0 | 0.0 | 0.00 | 0.00 | 0.00 | 70 | 1011.2 |
| 20260507023505 | 51 | 22 | 0.0 | 0.0 | 0.00 | 0.00 | 0.00 | 70 | 1011.1 |
| 20260507023015 | 51 | 22 | 0.0 | 0.0 | 0.00 | 0.00 | 0.00 | 69 | 1011.1 |
| 20260507022507 | 51 | 17 | 0.0 | 1.7 | 0.00 | 0.00 | 0.00 | 69 | 1011.0 |
| 20260507022007 | 52 | 19 | 0.0 | 1.7 | 0.00 | 0.00 | 0.00 | 68 | 1011.1 |
| 20260507021528 | 52 | 43 | 0.9 | 1.7 | 0.00 | 0.00 | 0.00 | 67 | 1011.1 |
| 20260507021007 | 52 | 26 | 0.0 | 0.9 | 0.00 | 0.00 | 0.00 | 67 | 1011.1 |
| 20260507020505 | 52 | 352 | 0.0 | 1.7 | 0.00 | 0.00 | 0.00 | 68 | 1011.1 |
| 20260507020015 | 52 | 352 | 0.0 | 1.7 | 0.00 | 0.00 | 0.00 | 67 | 1011.1 |
| 20260507015506 | 52 | 14 | 0.0 | 1.7 | 0.00 | 0.00 | 0.00 | 67 | 1011.2 |
| 20260507015006 | 52 | 21 | 0.0 | 1.7 | 0.00 | 0.00 | 0.00 | 67 | 1011.1 |
| 20260507014519 | 52 | 20 | 0.9 | 1.7 | 0.00 | 0.00 | 0.00 | 66 | 1011.1 |
| 20260507014010 | 53 | 5 | 0.0 | 1.7 | 0.00 | 0.00 | 0.00 | 67 | 1011.2 |
| 20260507013505 | 53 | 13 | 0.0 | 1.7 | 0.00 | 0.00 | 0.00 | 67 | 1011.3 |
| 20260507013015 | 53 | 24 | 0.0 | 1.7 | 0.00 | 0.00 | 0.00 | 66 | 1011.4 |
| 20260507012507 | 53 | 36 | 0.0 | 1.7 | 0.00 | 0.00 | 0.00 | 67 | 1011.4 |
| 20260507012010 | 54 | 44 | 0.0 | 1.7 | 0.00 | 0.00 | 0.00 | 65 | 1011.5 |
| 20260507011527 | 54 | 31 | 0.9 | 1.7 | 0.00 | 0.00 | 0.00 | 64 | 1011.4 |
| 20260507011008 | 54 | 23 | 0.0 | 1.7 | 0.00 | 0.00 | 0.00 | 64 | 1011.5 |
| 20260507010510 | 55 | 352 | 0.0 | 1.7 | 0.00 | 0.00 | 0.00 | 63 | 1011.5 |
| 20260507010029 | 55 | 9 | 0.0 | 2.6 | 0.00 | 0.00 | 0.00 | 63 | 1011.6 |
| 20260507005507 | 55 | 19 | 0.0 | 2.6 | 0.00 | 0.00 | 0.00 | 61 | 1011.5 |
| 20260507005007 | 55 | 36 | 0.9 | 1.7 | 0.00 | 0.00 | 0.00 | 61 | 1011.6 |
| 20260507004518 | 55 | 47 | 0.0 | 1.7 | 0.00 | 0.00 | 0.00 | 61 | 1011.7 |
| 20260507004006 | 55 | 53 | 0.0 | 2.6 | 0.00 | 0.00 | 0.00 | 61 | 1011.7 |
| 20260507003507 | 55 | 39 | 0.9 | 2.6 | 0.00 | 0.00 | 0.00 | 62 | 1011.7 |
| 20260507003019 | 56 | 27 | 0.0 | 0.9 | 0.00 | 0.00 | 0.00 | 60 | 1011.7 |
| 20260507002506 | 56 | 69 | 0.0 | 1.7 | 0.00 | 0.00 | 0.00 | 60 | 1011.7 |
| 20260507002008 | 56 | 33 | 0.0 | 1.7 | 0.00 | 0.00 | 0.00 | 60 | 1011.8 |
| 20260507001516 | 56 | 32 | 0.0 | 1.7 | 0.00 | 0.00 | 0.00 | 59 | 1011.8 |
| 20260507001007 | 56 | 24 | 0.0 | 1.7 | 0.00 | 0.00 | 0.00 | 58 | 1011.7 |
| 20260507000512 | 56 | 57 | 0.0 | 1.7 | 0.00 | 0.00 | 0.00 | 58 | 1011.9 |
| 20260507000018 | 56 | 42 | 0.9 | 1.7 | 0.00 | 0.00 | 0.00 | 57 | 1012.0 |
| 20260506235506 | 57 | 360 | 0.0 | 0.9 | 0.00 | 0.00 | 0.00 | 55 | 1012.0 |
| 20260506235007 | 57 | 360 | 0.0 | 0.0 | 0.00 | 0.00 | 0.00 | 54 | 1012.0 |
| 20260506234519 | 57 | 360 | 0.0 | 0.0 | 0.00 | 0.00 | 0.00 | 54 | 1012.0 |
| 20260506234006 | 56 | 360 | 0.0 | 1.7 | 0.00 | 0.00 | 0.00 | 55 | 1012.1 |
| 20260506233506 | 56 | 360 | 0.0 | 1.7 | 0.00 | 0.00 | 0.00 | 55 | 1012.1 |
| 20260506233012 | 57 | 360 | 0.0 | 1.7 | 0.00 | 0.00 | 0.00 | 54 | 1012.1 |
| 20260506232506 | 57 | 360 | 0.0 | 1.7 | 0.00 | 0.00 | 0.00 | 52 | 1012.1 |
| 20260506232008 | 58 | 338 | 0.0 | 1.7 | 0.00 | 0.00 | 0.00 | 51 | 1012.1 |
| 20260506231525 | 58 | 262 | 0.0 | 1.7 | 0.00 | 0.00 | 0.00 | 51 | 1012.1 |
| 20260506231010 | 58 | 263 | 0.0 | 1.7 | 0.00 | 0.00 | 0.00 | 51 | 1012.1 |
| 20260506230506 | 59 | 246 | 0.9 | 1.7 | 0.00 | 0.00 | 0.00 | 51 | 1012.1 |
| 20260506230024 | 59 | 306 | 0.9 | 3.5 | 0.00 | 0.00 | 0.00 | 51 | 1012.1 |
| 20260506225511 | 59 | 5 | 1.7 | 3.5 | 0.00 | 0.00 | 0.00 | 51 | 1012.1 |
| 20260506225010 | 59 | 301 | 1.7 | 3.5 | 0.00 | 0.00 | 0.00 | 53 | 1012.2 |
| 20260506224520 | 59 | 279 | 0.9 | 1.7 | 0.00 | 0.00 | 0.00 | 53 | 1012.2 |
| 20260506224008 | 59 | 284 | 0.0 | 1.7 | 0.00 | 0.00 | 0.00 | 51 | 1012.2 |
| 20260506223513 | 59 | 292 | 0.9 | 1.7 | 0.00 | 0.00 | 0.00 | 51 | 1012.1 |
| 20260506223020 | 59 | 261 | 0.0 | 2.6 | 0.00 | 0.00 | 0.00 | 51 | 1012.1 |
| 20260506222509 | 59 | 253 | 0.9 | 2.6 | 0.00 | 0.00 | 0.00 | 51 | 1012.1 |
| 20260506222010 | 59 | 282 | 0.9 | 1.7 | 0.00 | 0.00 | 0.00 | 52 | 1012.2 |
| 20260506221516 | 59 | 274 | 0.9 | 2.6 | 0.00 | 0.00 | 0.00 | 52 | 1012.1 |
| 20260506221009 | 59 | 260 | 0.9 | 2.6 | 0.00 | 0.00 | 0.00 | 51 | 1012.1 |
| 20260506220507 | 59 | 306 | 0.9 | 2.6 | 0.00 | 0.00 | 0.00 | 51 | 1011.9 |
| 20260506220029 | 59 | 300 | 0.9 | 1.7 | 0.00 | 0.00 | 0.00 | 52 | 1012.0 |
| 20260506215508 | 60 | 283 | 0.0 | 1.7 | 0.00 | 0.00 | 0.00 | 53 | 1012.0 |
| 20260506215009 | 60 | 269 | 0.0 | 3.5 | 0.00 | 0.00 | 0.00 | 51 | 1012.0 |
| 20260506214521 | 59 | 228 | 1.7 | 3.5 | 0.00 | 0.00 | 0.00 | 52 | 1012.0 |
| 20260506214008 | 60 | 281 | 0.9 | 3.5 | 0.00 | 0.00 | 0.00 | 51 | 1012.0 |
| 20260506213511 | 60 | 261 | 0.0 | 2.6 | 0.00 | 0.00 | 0.00 | 51 | 1012.0 |
| 20260506213028 | 60 | 254 | 0.0 | 2.6 | 0.00 | 0.00 | 0.00 | 54 | 1011.9 |
| 20260506212508 | 60 | 229 | 1.7 | 3.5 | 0.00 | 0.00 | 0.00 | 51 | 1011.9 |
| 20260506212013 | 60 | 223 | 1.7 | 4.3 | 0.00 | 0.00 | 0.00 | 50 | 1011.9 |
| 20260506211527 | 60 | 205 | 0.9 | 5.2 | 0.00 | 0.00 | 0.00 | 51 | 1011.9 |
| 20260506211007 | 60 | 203 | 1.7 | 5.2 | 0.00 | 0.00 | 0.00 | 51 | 1011.8 |
| 20260506210508 | 60 | 200 | 1.7 | 4.3 | 0.00 | 0.00 | 0.00 | 51 | 1011.7 |
| 20260506210018 | 60 | 200 | 0.9 | 4.3 | 0.00 | 0.00 | 0.00 | 53 | 1011.7 |
| 20260506205507 | 60 | 208 | 1.7 | 4.3 | 0.00 | 0.00 | 0.00 | 52 | 1011.6 |
| 20260506205008 | 60 | 248 | 1.7 | 4.3 | 0.00 | 0.00 | 0.00 | 53 | 1011.5 |
| 20260506204531 | 60 | 259 | 0.9 | 3.5 | 0.00 | 0.00 | 0.00 | 53 | 1011.6 |
| 20260506204013 | 61 | 177 | 0.0 | 1.7 | 0.00 | 0.00 | 0.00 | 52 | 1011.4 |
| 20260506203508 | 61 | 202 | 0.0 | 2.6 | 0.00 | 0.00 | 0.00 | 52 | 1011.4 |
| 20260506203027 | 61 | 202 | 0.0 | 3.5 | 0.00 | 0.00 | 0.00 | 51 | 1011.3 |
| 20260506202509 | 61 | 209 | 0.0 | 5.2 | 0.00 | 0.00 | 0.00 | 52 | 1011.2 |
| 20260506202010 | 61 | 145 | 0.9 | 5.2 | 0.00 | 0.00 | 0.00 | 50 | 1011.1 |
| 20260506201527 | 62 | 190 | 0.9 | 3.5 | 0.00 | 0.00 | 0.00 | 50 | 1011.1 |
| 20260506201008 | 62 | 168 | 0.9 | 4.3 | 0.00 | 0.00 | 0.00 | 49 | 1011.1 |
| 20260506200505 | 62 | 173 | 1.7 | 4.3 | 0.00 | 0.00 | 0.00 | 50 | 1011.1 |
| 20260506200014 | 62 | 157 | 0.0 | 0.9 | 0.00 | 0.00 | 0.00 | 50 | 1011.0 |
| 20260506195506 | 62 | 109 | 0.0 | 3.5 | 0.00 | 0.00 | 0.00 | 49 | 1011.0 |
| 20260506195006 | 63 | 126 | 0.0 | 5.2 | 0.00 | 0.00 | 0.00 | 49 | 1010.9 |
| 20260506194519 | 63 | 200 | 2.6 | 5.2 | 0.00 | 0.00 | 0.00 | 48 | 1010.9 |
| 20260506194011 | 63 | 157 | 1.7 | 4.3 | 0.00 | 0.00 | 0.00 | 49 | 1010.8 |
| 20260506193509 | 64 | 157 | 0.0 | 1.7 | 0.00 | 0.00 | 0.00 | 48 | 1010.7 |
| 20260506193023 | 64 | 236 | 0.0 | 1.7 | 0.00 | 0.00 | 0.00 | 47 | 1010.7 |
| 20260506192506 | 64 | 294 | 0.0 | 3.5 | 0.00 | 0.00 | 0.00 | 47 | 1010.5 |
| 20260506192009 | 64 | 279 | 1.7 | 3.5 | 0.00 | 0.00 | 0.00 | 46 | 1010.5 |
| 20260506191511 | 65 | 195 | 0.9 | 3.5 | 0.00 | 0.00 | 0.00 | 43 | 1010.4 |
| 20260506191016 | 65 | 207 | 0.0 | 3.5 | 0.00 | 0.00 | 0.00 | 43 | 1010.3 |
| 20260506190508 | 65 | 209 | 0.0 | 1.7 | 0.00 | 0.00 | 0.00 | 40 | 1010.3 |
| 20260506190012 | 65 | 319 | 0.0 | 2.6 | 0.00 | 0.00 | 0.00 | 40 | 1010.1 |
| 20260506185505 | 66 | 268 | 0.0 | 2.6 | 0.00 | 0.00 | 0.00 | 40 | 1010.1 |
| 20260506185006 | 66 | 305 | 0.0 | 2.6 | 0.00 | 0.00 | 0.00 | 41 | 1010.1 |
| 20260506184519 | 66 | 269 | 0.9 | 3.5 | 0.00 | 0.00 | 0.00 | 40 | 1010.1 |
| 20260506184008 | 66 | 336 | 0.9 | 4.3 | 0.00 | 0.00 | 0.00 | 39 | 1010.1 |
| 20260506183508 | 66 | 320 | 1.7 | 6.1 | 0.00 | 0.00 | 0.00 | 38 | 1010.1 |
| 20260506183023 | 66 | 294 | 1.7 | 6.1 | 0.00 | 0.00 | 0.00 | 39 | 1010.1 |
| 20260506182506 | 66 | 293 | 0.9 | 4.3 | 0.00 | 0.00 | 0.00 | 39 | 1010.0 |
| 20260506182010 | 67 | 348 | 2.6 | 4.3 | 0.00 | 0.00 | 0.00 | 38 | 1010.1 |
| 20260506181528 | 67 | 325 | 1.7 | 4.3 | 0.00 | 0.00 | 0.00 | 38 | 1010.0 |
| 20260506181011 | 67 | 319 | 1.7 | 6.1 | 0.00 | 0.00 | 0.00 | 38 | 1010.1 |
| 20260506180510 | 67 | 5 | 1.7 | 6.1 | 0.00 | 0.00 | 0.00 | 38 | 1010.1 |
| 20260506180015 | 67 | 304 | 1.7 | 6.1 | 0.00 | 0.00 | 0.00 | 37 | 1010.1 |
| 20260506175506 | 67 | 286 | 2.6 | 6.1 | 0.00 | 0.00 | 0.00 | 37 | 1010.1 |
| 20260506175007 | 67 | 323 | 3.5 | 5.2 | 0.00 | 0.00 | 0.00 | 37 | 1010.1 |
| 20260506174515 | 68 | 347 | 1.7 | 7.0 | 0.00 | 0.00 | 0.00 | 37 | 1010.1 |
| 20260506174008 | 68 | 294 | 2.6 | 7.0 | 0.00 | 0.00 | 0.00 | 37 | 1010.0 |
| 20260506173507 | 68 | 279 | 4.3 | 7.0 | 0.00 | 0.00 | 0.00 | 36 | 1010.1 |
| 20260506173019 | 68 | 306 | 2.6 | 8.7 | 0.00 | 0.00 | 0.00 | 36 | 1010.1 |
| 20260506172508 | 68 | 296 | 3.5 | 9.6 | 0.00 | 0.00 | 0.00 | 37 | 1010.0 |
| 20260506172009 | 68 | 307 | 5.2 | 9.6 | 0.00 | 0.00 | 0.00 | 36 | 1010.0 |
| 20260506171535 | 69 | 295 | 2.6 | 8.7 | 0.00 | 0.00 | 0.00 | 35 | 1010.0 |
| 20260506171412 | 69 | 311 | 3.5 | 8.7 | 0.00 | 0.00 | 0.00 | 35 | 1010.0 |
| 20260506171407 | 69 | 311 | 4.3 | 10.4 | 0.00 | 0.00 | 0.00 | 35 | 1010.1 |
| 20260506171403 | 69 | 290 | 6.1 | 10.4 | 0.00 | 0.00 | 0.00 | 34 | 1010.0 |
| 20260506171358 | 69 | 276 | 6.1 | 11.3 | 0.00 | 0.00 | 0.00 | 34 | 1010.0 |
| 20260506171355 | 69 | 319 | 5.2 | 10.4 | 0.00 | 0.00 | 0.00 | 34 | 1009.9 |
| 20260506171350 | 70 | 265 | 3.5 | 7.8 | 0.00 | 0.00 | 0.00 | 34 | 1009.9 |
| 20260506150731 | 71 | 300 | 3.5 | 10.4 | 0.00 | 0.00 | 0.00 | 31 | 1010.4 |
| 20260506144052 | 72 | 247 | 4.3 | 7.8 | 0.00 | 0.00 | 0.00 | 31 | 1010.5 |
| 20260506143514 | 73 | 168 | 2.6 | 7.8 | 0.00 | 0.00 | 0.00 | 30 | 1010.6 |
| 20260506143043 | 73 | 252 | 3.5 | 9.6 | 0.00 | 0.00 | 0.00 | 29 | 1010.6 |
| 20260506142512 | 72 | 206 | 2.6 | 9.6 | 0.00 | 0.00 | 0.00 | 32 | 1010.7 |
| 20260506142011 | 72 | 279 | 2.6 | 7.8 | 0.00 | 0.00 | 0.00 | 34 | 1010.7 |
| 20260506141920 | 71 | 275 | 5.2 | 0.0 | 0.00 | 0.00 | 0.00 | 1011.0 | |
| 20260506141813 | 70 | 223 | 3.5 | 10.4 | 0.00 | 0.00 | 0.00 | 33 | 1010.9 |
| 20260506133539 | 71 | 190 | 3.5 | 10.4 | 0.00 | 0.00 | 0.00 | 36 | 1010.9 |
| 20260506133012 | 69 | 256 | 4.3 | 10.4 | 0.00 | 0.00 | 0.00 | 35 | 1011.0 |
| 20260506132509 | 69 | 223 | 5.2 | 8.7 | 0.00 | 0.00 | 0.00 | 37 | 1010.9 |
| 20260506132008 | 69 | 261 | 5.2 | 7.8 | 0.00 | 0.00 | 0.00 | 36 | 1011.0 |
| 20260506131525 | 69 | 242 | 2.6 | 8.7 | 0.00 | 0.00 | 0.00 | 35 | 1011.0 |
| 20260506131006 | 69 | 329 | 2.6 | 8.7 | 0.00 | 0.00 | 0.00 | 35 | 1011.1 |
| 20260506130507 | 70 | 229 | 2.6 | 6.1 | 0.00 | 0.00 | 0.00 | 34 | 1011.1 |
| 20260506130023 | 69 | 236 | 2.6 | 7.8 | 0.00 | 0.00 | 0.00 | 34 | 1011.1 |
| 20260506125509 | 69 | 262 | 3.5 | 7.8 | 0.00 | 0.00 | 0.00 | 33 | 1011.2 |
| 20260506125011 | 69 | 327 | 2.6 | 6.1 | 0.00 | 0.00 | 0.00 | 34 | 1011.2 |
| 20260506124526 | 69 | 218 | 3.5 | 7.0 | 0.00 | 0.00 | 0.00 | 35 | 1011.1 |
| 20260506124009 | 70 | 237 | 1.7 | 7.0 | 0.00 | 0.00 | 0.00 | 34 | 1011.1 |
| 20260506123509 | 70 | 231 | 2.6 | 6.1 | 0.00 | 0.00 | 0.00 | 33 | 1011.2 |
| 20260506123009 | 70 | 203 | 2.6 | 7.8 | 0.00 | 0.00 | 0.00 | 34 | 1011.3 |
| 20260506122507 | 68 | 194 | 0.9 | 7.8 | 0.00 | 0.00 | 0.00 | 35 | 1011.3 |
| 20260506122012 | 69 | 281 | 0.9 | 7.0 | 0.00 | 0.00 | 0.00 | 36 | 1011.4 |
| 20260506121515 | 69 | 209 | 3.5 | 7.0 | 0.00 | 0.00 | 0.00 | 35 | 1011.4 |
| 20260506121006 | 69 | 229 | 1.7 | 6.1 | 0.00 | 0.00 | 0.00 | 35 | 1011.5 |
| 20260506120512 | 69 | 275 | 2.6 | 6.1 | 0.00 | 0.00 | 0.00 | 36 | 1011.5 |
| 20260506120020 | 70 | 144 | 0.9 | 3.5 | 0.00 | 0.00 | 0.00 | 35 | 1011.6 |
| 20260506115508 | 69 | 162 | 0.9 | 3.5 | 0.00 | 0.00 | 0.00 | 34 | 1011.6 |
| 20260506115006 | 68 | 101 | 1.7 | 7.8 | 0.00 | 0.00 | 0.00 | 36 | 1011.6 |
| 20260506114538 | 67 | 252 | 2.6 | 7.8 | 0.00 | 0.00 | 0.00 | 37 | 1011.8 |
| 20260506114008 | 68 | 276 | 3.5 | 7.0 | 0.00 | 0.00 | 0.00 | 39 | 1011.7 |
| 20260506113512 | 68 | 214 | 3.5 | 6.1 | 0.00 | 0.00 | 0.00 | 37 | 1011.8 |
| 20260506113026 | 67 | 192 | 0.9 | 5.2 | 0.00 | 0.00 | 0.00 | 38 | 1011.8 |
| 20260506112509 | 67 | 219 | 0.0 | 3.5 | 0.00 | 0.00 | 0.00 | 36 | 1011.8 |
| 20260506112009 | 69 | 178 | 0.9 | 6.1 | 0.00 | 0.00 | 0.00 | 35 | 1011.9 |
| 20260506111512 | 67 | 96 | 0.9 | 6.1 | 0.00 | 0.00 | 0.00 | 39 | 1011.9 |
| 20260506111007 | 67 | 180 | 1.7 | 5.2 | 0.00 | 0.00 | 0.00 | 36 | 1012.0 |
| 20260506110515 | 67 | 257 | 0.9 | 5.2 | 0.00 | 0.00 | 0.00 | 38 | 1012.1 |
| 20260506110018 | 67 | 220 | 1.7 | 4.3 | 0.00 | 0.00 | 0.00 | 36 | 1012.2 |
| 20260506105507 | 67 | 178 | 0.9 | 4.3 | 0.00 | 0.00 | 0.00 | 38 | 1012.3 |
| 20260506105010 | 66 | 141 | 0.9 | 4.3 | 0.00 | 0.00 | 0.00 | 37 | 1012.4 |
| 20260506104521 | 66 | 233 | 2.6 | 4.3 | 0.00 | 0.00 | 0.00 | 37 | 1012.5 |
| 20260506104008 | 65 | 69 | 0.0 | 4.3 | 0.00 | 0.00 | 0.00 | 36 | 1012.6 |
| 20260506103511 | 66 | 279 | 1.7 | 4.3 | 0.00 | 0.00 | 0.00 | 38 | 1012.7 |
| 20260506103027 | 66 | 177 | 0.9 | 4.3 | 0.00 | 0.00 | 0.00 | 40 | 1012.8 |
| 20260506102509 | 67 | 190 | 0.9 | 2.6 | 0.00 | 0.00 | 0.00 | 35 | 1012.8 |
| 20260506102009 | 66 | 194 | 0.0 | 5.2 | 0.00 | 0.00 | 0.00 | 40 | 1012.8 |
| 20260506101544 | 66 | 173 | 0.9 | 5.2 | 0.00 | 0.00 | 0.00 | 39 | 1012.8 |
| 20260506101015 | 66 | 133 | 1.7 | 4.3 | 0.00 | 0.00 | 0.00 | 37 | 1012.8 |
| 20260506100508 | 66 | 160 | 1.7 | 4.3 | 0.00 | 0.00 | 0.00 | 40 | 1012.8 |
| 20260506100018 | 66 | 140 | 0.9 | 4.3 | 0.00 | 0.00 | 0.00 | 40 | 1012.8 |
| 20260506095507 | 65 | 133 | 0.0 | 3.5 | 0.00 | 0.00 | 0.00 | 37 | 1012.8 |
| 20260506095011 | 65 | 18 | 0.0 | 2.6 | 0.00 | 0.00 | 0.00 | 43 | 1012.8 |
| 20260506094521 | 64 | 45 | 0.9 | 6.1 | 0.00 | 0.00 | 0.00 | 45 | 1012.8 |
| 20260506094007 | 64 | 145 | 0.0 | 6.1 | 0.00 | 0.00 | 0.00 | 48 | 1012.8 |
| 20260506093514 | 64 | 207 | 1.7 | 5.2 | 0.00 | 0.00 | 0.00 | 46 | 1012.8 |
| 20260506093026 | 62 | 159 | 1.7 | 4.3 | 0.00 | 0.00 | 0.00 | 50 | 1012.8 |
| 20260506092508 | 62 | 217 | 1.7 | 4.3 | 0.00 | 0.00 | 0.00 | 48 | 1012.7 |
| 20260506092010 | 62 | 188 | 0.9 | 3.5 | 0.00 | 0.00 | 0.00 | 47 | 1012.7 |
| 20260506091528 | 62 | 165 | 0.9 | 3.5 | 0.00 | 0.00 | 0.00 | 51 | 1012.7 |
| 20260506091010 | 62 | 166 | 0.9 | 2.6 | 0.00 | 0.00 | 0.00 | 48 | 1012.8 |
| 20260506090507 | 62 | 140 | 0.9 | 2.6 | 0.00 | 0.00 | 0.00 | 49 | 1012.8 |
| 20260506090029 | 61 | 82 | 0.9 | 3.5 | 0.00 | 0.00 | 0.00 | 51 | 1012.8 |
| 20260506085506 | 60 | 143 | 0.9 | 3.5 | 0.00 | 0.00 | 0.00 | 50 | 1013.0 |
| 20260506085009 | 60 | 147 | 0.0 | 2.6 | 0.00 | 0.00 | 0.00 | 49 | 1012.9 |
| 20260506084521 | 60 | 175 | 0.0 | 2.6 | 0.00 | 0.00 | 0.00 | 53 | 1013.0 |
| 20260506084009 | 59 | 227 | 0.9 | 2.6 | 0.00 | 0.00 | 0.00 | 53 | 1013.0 |
| 20260506083507 | 58 | 172 | 0.0 | 3.5 | 0.00 | 0.00 | 0.00 | 55 | 1013.0 |
| 20260506083005 | 57 | 213 | 0.9 | 3.5 | 0.00 | 0.00 | 0.00 | 54 | 1013.0 |
| 20260506082503 | 57 | 113 | 0.9 | 2.6 | 0.00 | 0.00 | 0.00 | 56 | 1013.0 |
| 20260506082003 | 57 | 204 | 0.0 | 1.7 | 0.00 | 0.00 | 0.00 | 55 | 1013.0 |
| 20260506081508 | 58 | 122 | 0.0 | 2.6 | 0.00 | 0.00 | 0.00 | 56 | 1013.0 |
| 20260506081009 | 56 | 172 | 0.0 | 2.6 | 0.00 | 0.00 | 0.00 | 59 | 1013.1 |
| 20260506080507 | 56 | 226 | 0.0 | 2.6 | 0.00 | 0.00 | 0.00 | 59 | 1013.1 |
| 20260506073507 | 54 | 42 | 0.0 | 1.7 | 0.00 | 0.00 | 0.00 | 60 | 1013.0 |
| 20260506073023 | 53 | 97 | 0.0 | 1.7 | 0.00 | 0.00 | 0.00 | 63 | 1013.0 |
| 20260506072508 | 53 | 109 | 0.0 | 1.7 | 0.00 | 0.00 | 0.00 | 60 | 1013.1 |
| 20260506072004 | 53 | 97 | 0.0 | 1.7 | 0.00 | 0.00 | 0.00 | 63 | 1013.2 |
| 20260506071513 | 52 | 30 | 0.0 | 1.7 | 0.00 | 0.00 | 0.00 | 64 | 1013.2 |
| 20260506071004 | 51 | 298 | 0.0 | 2.6 | 0.00 | 0.00 | 0.00 | 67 | 1013.2 |
| 20260506070503 | 50 | 313 | 0.9 | 2.6 | 0.00 | 0.00 | 0.00 | 67 | 1013.2 |
| 20260506062516 | 46 | 66 | 0.0 | 1.7 | 0.00 | 0.00 | 0.00 | 72 | 1013.2 |
| 20260506062009 | 46 | 30 | 0.0 | 1.7 | 0.00 | 0.00 | 0.00 | 73 | 1013.2 |
| 20260506061524 | 46 | 85 | 0.0 | 1.7 | 0.00 | 0.00 | 0.00 | 74 | 1013.3 |
| 20260506061002 | 45 | 106 | 0.0 | 1.7 | 0.00 | 0.00 | 0.00 | 74 | 1013.1 |
| 20260506060506 | 44 | 63 | 0.0 | 1.7 | 0.00 | 0.00 | 0.00 | 74 | 1013.0 |
| 20260506051009 | 44 | 17 | 0.0 | 1.7 | 0.00 | 0.00 | 0.00 | 74 | 1012.9 |
| 20260506050517 | 44 | 28 | 0.0 | 1.7 | 0.00 | 0.00 | 0.00 | 74 | 1012.9 |
| 20260506045007 | 45 | 24 | 1.7 | 4.3 | 0.00 | 0.00 | 0.00 | 73 | 1012.9 |
| 20260506044511 | 44 | 57 | 0.9 | 2.6 | 0.00 | 0.00 | 0.00 | 74 | 1012.9 |
| 20260506044006 | 44 | 5 | 0.0 | 1.7 | 0.00 | 0.00 | 0.00 | 76 | 1012.9 |
| 20260506043506 | 44 | 37 | 0.0 | 2.6 | 0.00 | 0.00 | 0.00 | 75 | 1012.9 |
| 20260506043015 | 44 | 24 | 0.9 | 2.6 | 0.00 | 0.00 | 0.00 | 74 | 1012.9 |